Home   Weather   Novorossiysk   Past weeks

Flag for Russia Past Weather in Novorossiysk, Russia — Yesterday and Last 2 Weeks

Now
54 °F

Passing clouds.


Feels Like: 51 °F
Forecast: 44 / 78 °F
Wind: 8 mph from Northeast

Location: Anapa / Vitiazevo

Current Time: Oct 1, 2016 at 10:01:40 PM

Latest Report: Oct 1, 2016 at 9:30 PM


Visibility: N/A

Pressure: 30.15 "Hg

Humidity: 94%

Dew Point: 52 °F

Location of NovorossiyskLocation

Past Weather in Novorossiysk — Graph

°F

Novorossiysk Temperature Yesterday

Maximum temperature yesterday: 66 °F (at 2:30 PM)
Minimum temperature yesterday: 48 °F (at 11:00 PM)
Average temperature yesterday: 57 °F

High & Low Weather Summary for the Past Weeks

 TemperatureHumidityPressure
High81 °F (Sep 20, 11:00 AM)100% (Sep 18, 4:30 AM)30.24 "Hg (Sep 18, 4:30 AM)
Low41 °F (Sep 24, 5:30 AM)35% (Sep 22, 12:00 PM)29.56 "Hg (Sep 20, 11:30 AM)
Average59 °F80%30.00 "Hg
* Reported Sep 16 8:00 PM — Oct 1 8:30 PM, Novorossiysk, Weather by CustomWeather, © 2016

Note: Actual official high and low records may vary slightly from our data, if they occured in-between our weather recording intervals... More about our weather records

Advertising

Novorossiysk Weather History for the Previous 24 Hours

Scroll right to see more
 ConditionsComfort  
Time TempWeatherWind HumidityBarometerVisibility
8:30 PM
Sat, Oct 1
55 °FPassing clouds.8 mph94%30.15 "HgN/A
8:00 PM57 °FPassing clouds.6 mph94%30.15 "HgN/A
7:30 PM55 °FPassing clouds.6 mph94%30.15 "HgN/A
7:00 PM57 °FPassing clouds.3 mph88%30.15 "HgN/A
6:30 PM61 °FPassing clouds.No wind83%30.15 "HgN/A
6:00 PM64 °FPassing clouds.3 mph78%30.15 "HgN/A
5:30 PM66 °FPassing clouds.6 mph73%30.15 "HgN/A
5:00 PM66 °FPassing clouds.8 mph73%30.15 "HgN/A
4:30 PM66 °FPassing clouds.10 mph73%30.15 "HgN/A
4:00 PM68 °FPassing clouds.8 mph69%30.15 "HgN/A
3:30 PM68 °FPassing clouds.10 mph69%30.18 "HgN/A
3:00 PM68 °FPassing clouds.8 mph69%30.18 "HgN/A
2:30 PM68 °FPassing clouds.10 mph69%30.18 "HgN/A
2:00 PM68 °FPassing clouds.10 mph69%30.18 "HgN/A
1:30 PM70 °FPassing clouds.10 mph64%30.21 "HgN/A
1:00 PM68 °FPassing clouds.8 mph64%30.21 "HgN/A
12:30 PM68 °FPassing clouds.3 mph69%30.21 "HgN/A
12:00 PM68 °FScattered clouds.6 mph69%30.21 "HgN/A
11:30 AM66 °FScattered clouds.6 mph73%30.21 "HgN/A
11:00 AM64 °FScattered clouds.6 mph78%30.24 "HgN/A
10:30 AM66 °FScattered clouds.6 mph73%30.24 "HgN/A
10:00 AM64 °FScattered clouds.6 mph78%30.24 "HgN/A
9:30 AM64 °FPassing clouds.3 mph78%30.24 "HgN/A
9:00 AM63 °FPassing clouds.3 mph83%30.21 "HgN/A
8:30 AM59 °FSunny.3 mph94%30.21 "Hg10 mi
8:00 AM57 °FSunny.3 mph94%30.21 "Hg10 mi
7:30 AM52 °FSunny.6 mph94%30.21 "Hg10 mi
7:00 AM46 °FSunny.6 mph100%30.21 "HgN/A
6:30 AM46 °FSunny.6 mph93%30.21 "HgN/A
6:00 AM45 °FClear.6 mph100%30.21 "HgN/A
5:30 AM45 °FClear.3 mph93%30.21 "HgN/A
5:00 AM43 °FClear.3 mph93%30.21 "HgN/A
4:30 AM43 °FClear.3 mph100%30.21 "HgN/A
4:00 AM45 °FClear.3 mph93%30.21 "HgN/A
3:30 AM43 °FQuite cool.1 mph100%30.21 "Hg5 mi
3:00 AM45 °FClear.1 mph100%30.21 "HgN/A
2:30 AM45 °FClear.3 mph100%30.21 "HgN/A
2:00 AM45 °FClear.3 mph93%30.21 "HgN/A
1:00 AM46 °FClear.3 mph93%30.21 "HgN/A
12:30 AM45 °FClear.3 mph100%30.21 "HgN/A
12:00 AM48 °FClear.3 mph94%30.21 "HgN/A
11:30 PM
Fri, Sep 30
48 °FClear.6 mph94%30.21 "HgN/A
11:00 PM48 °FClear.3 mph94%30.21 "Hg10 mi
10:30 PM50 °FClear.3 mph94%30.21 "Hg10 mi
10:00 PM50 °FClear.6 mph94%30.24 "Hg10 mi
Weather by CustomWeather, © 2016

See weather overviewHow to use our weather pages